This is the latest recevied weather packets stored in our database for station/object KC3DGM. If no packets are shown the sender has not sent any weather packets the latest 10 day(s).
| Time | Temp. | Humidity | Pressure | Rain* | Wind** | Luminosity | Snow |
|---|---|---|---|---|---|---|---|
| 1777334847 | 18.89° C | 47% | 988.2 hPa | 0 mm | - | 1 W/m² | - |
| 1777334545 | 19.44° C | 46% | 988.5 hPa | 0 mm | - | 2 W/m² | - |
| 1777334241 | 19.44° C | 46% | 988.4 hPa | 0 mm | - | 5 W/m² | - |
| 1777333941 | 19.44° C | 47% | 988.6 hPa | 0 mm | - | 6 W/m² | - |
| 1777333638 | 19.44° C | 46% | 988.6 hPa | 0 mm | - | 9 W/m² | - |
| 1777333334 | 19.44° C | 48% | 988.6 hPa | 0 mm | - | 11 W/m² | - |
| 1777333033 | 20° C | 45% | 988.6 hPa | 0 mm | - | 15 W/m² | - |
| 1777332731 | 20° C | 46% | 988.8 hPa | 0 mm | - | 17 W/m² | - |
| 1777332427 | 20° C | 47% | 988.6 hPa | 0 mm | - | 19 W/m² | - |
| 1777332123 | 20° C | 44% | 988.5 hPa | 0 mm | - | 22 W/m² | - |
| 1777331821 | 20.56° C | 45% | 988.9 hPa | 0 mm | - | 24 W/m² | - |
| 1777331517 | 20.56° C | 44% | 988.9 hPa | 0 mm | - | 29 W/m² | - |
| 1777331215 | 20.56° C | 43% | 989 hPa | 0 mm | - | 33 W/m² | - |
| 1777330912 | 20.56° C | 44% | 989 hPa | 0 mm | - | 37 W/m² | - |
| 1777330609 | 20.56° C | 43% | 989 hPa | 0 mm | - | 42 W/m² | - |
| 1777330306 | 21.11° C | 44% | 988.9 hPa | 0 mm | - | 45 W/m² | - |
| 1777330004 | 21.11° C | 43% | 988.9 hPa | 0 mm | - | 47 W/m² | - |
| 1777329703 | 21.11° C | 42% | 989 hPa | 0 mm | - | 49 W/m² | - |
| 1777329401 | 21.11° C | 42% | 989.2 hPa | 0 mm | - | 55 W/m² | - |
| 1777329098 | 21.11° C | 42% | 989.2 hPa | 0 mm | - | 62 W/m² | - |
| 1777328795 | 21.67° C | 41% | 989.2 hPa | 0 mm | - | 66 W/m² | - |
| 1777328493 | 21.67° C | 41% | 989.3 hPa | 0 mm | - | 67 W/m² | - |
| 1777328192 | 21.67° C | 42% | 989.1 hPa | 0 mm | - | 63 W/m² | - |
| 1777327890 | 21.67° C | 41% | 989.4 hPa | 0 mm | - | 59 W/m² | - |
| 1777327587 | 21.67° C | 39% | 989.4 hPa | 0 mm | - | 61 W/m² | - |
* Rain latest hour (hover to see other rain measurements)
** Current wind speed in m/s (hover to see current wind gust speed)